When you browse on this site, cookies collect data to enhance your experience and personalize the content and advertising you see.
Visit our Privacy Policy to learn more. By continuing to use the site, you agree to this use of cookies and data.
  • In Romania
  • List of Countries
  • For 7 days
  • Water Temperature
  • Satellite Maps
  • Weather Map
  • Weather Widgets
  • user-avatar
    Login

    Hourly Weather Álftanes

    Today, 20 March, Wednesday

    Time Temperature Precipitation Wind Pressure Humidity
    00:00 +9°C° 0 mm 3 mps 767 mmHg 97%
    01:00 +9°C° 0 mm 3 mps 767 mmHg 97%
    02:00 +9°C° 0 mm 3 mps 767 mmHg 97%
    03:00 +9°C° 0 mm 3 mps 767 mmHg 96%
    04:00 +9°C° 0 mm 3 mps 767 mmHg 96%
    05:00 +9°C° 0 mm 3 mps 767 mmHg 96%
    06:00 +10°C° 0.1 mm 3 mps 767 mmHg 95%
    07:00 +10°C° 0.1 mm 3 mps 768 mmHg 95%
    08:00 +10°C° 0.1 mm 4 mps 768 mmHg 94%
    09:00 +11°C° 0 mm 4 mps 768 mmHg 92%
    10:00 +12°C° 0 mm 5 mps 768 mmHg 91%
    11:00 +13°C° 0 mm 5 mps 768 mmHg 89%
    12:00 +14°C° 0 mm 5 mps 768 mmHg 89%
    13:00 +14°C° 0 mm 5 mps 767 mmHg 89%
    14:00 +14°C° 0 mm 4 mps 767 mmHg 88%
    15:00 +13°C° 0 mm 4 mps 767 mmHg 90%
    16:00 +13°C° 0 mm 4 mps 767 mmHg 91%
    17:00 +12°C° 0 mm 4 mps 767 mmHg 92%
    18:00 +12°C° 0 mm 4 mps 767 mmHg 93%
    19:00 +12°C° 0 mm 4 mps 768 mmHg 93%
    20:00 +11°C° 0 mm 4 mps 768 mmHg 94%
    21:00 +11°C° 0 mm 4 mps 768 mmHg 94%
    22:00 +11°C° 0 mm 4 mps 768 mmHg 93%
    23:00 +11°C° 0 mm 4 mps 768 mmHg 93%

    Tomorrow, 21 March, Thursday

    Time Temperature Precipitation Wind Pressure Humidity
    00:00 +11°C° 0 mm 4 mps 768 mmHg 92%
    01:00 +11°C° 0 mm 4 mps 767 mmHg 92%
    02:00 +11°C° 0 mm 4 mps 767 mmHg 92%
    03:00 +10°C° 0 mm 4 mps 767 mmHg 92%
    04:00 +10°C° 0 mm 4 mps 767 mmHg 92%
    05:00 +10°C° 0 mm 4 mps 767 mmHg 92%
    06:00 +10°C° 0 mm 4 mps 767 mmHg 90%
    07:00 +10°C° 0 mm 5 mps 767 mmHg 89%
    08:00 +10°C° 0 mm 5 mps 768 mmHg 88%
    09:00 +10°C° 0 mm 5 mps 768 mmHg 87%
    10:00 +12°C° 0 mm 5 mps 767 mmHg 86%
    11:00 +12°C° 0 mm 5 mps 767 mmHg 85%
    12:00 +12°C° 0 mm 5 mps 767 mmHg 84%
    13:00 +13°C° 0 mm 5 mps 767 mmHg 84%
    14:00 +13°C° 0 mm 5 mps 766 mmHg 84%
    15:00 +13°C° 0 mm 4 mps 766 mmHg 84%
    16:00 +12°C° 0 mm 4 mps 766 mmHg 85%
    17:00 +12°C° 0 mm 4 mps 765 mmHg 85%
    18:00 +12°C° 0 mm 5 mps 765 mmHg 85%
    19:00 +10°C° 0 mm 5 mps 765 mmHg 85%
    20:00 +10°C° 0 mm 5 mps 764 mmHg 85%
    21:00 +10°C° 0 mm 5 mps 764 mmHg 84%
    22:00 +10°C° 0 mm 6 mps 763 mmHg 84%
    23:00 +10°C° 0 mm 6 mps 763 mmHg 83%

    Day after tomorrow, 22 March, Friday

    Time Temperature Precipitation Wind Pressure Humidity
    00:00 +10°C° 0 mm 7 mps 762 mmHg 83%
    01:00 +10°C° 0 mm 7 mps 761 mmHg 83%
    02:00 +9°C° 0 mm 7 mps 761 mmHg 83%
    03:00 +9°C° 0 mm 8 mps 760 mmHg 80%
    04:00 +9°C° 0 mm 8 mps 759 mmHg 78%
    05:00 +9°C° 0 mm 8 mps 758 mmHg 75%
    06:00 +9°C° 0.3 mm 8 mps 758 mmHg 79%
    07:00 +9°C° 0.3 mm 8 mps 758 mmHg 83%
    08:00 +9°C° 0.3 mm 8 mps 758 mmHg 87%
    09:00 +9°C° 1.3 mm 7 mps 759 mmHg 87%
    10:00 +8°C° 1.3 mm 6 mps 760 mmHg 88%
    11:00 +8°C° 1.3 mm 5 mps 760 mmHg 89%
    12:00 +8°C° 0.1 mm 6 mps 761 mmHg 81%
    13:00 +9°C° 0.1 mm 6 mps 762 mmHg 74%
    14:00 +9°C° 0.1 mm 7 mps 763 mmHg 67%
    15:00 +8°C° 0 mm 6 mps 764 mmHg 68%
    16:00 +7°C° 0 mm 5 mps 765 mmHg 69%
    17:00 +6°C° 0 mm 4 mps 766 mmHg 70%
    18:00 +5°C° 0 mm 4 mps 767 mmHg 72%
    19:00 +4°C° 0 mm 3 mps 768 mmHg 74%
    20:00 +2°C° 0 mm 3 mps 769 mmHg 76%
    21:00 +3°C° 0 mm 2 mps 769 mmHg 78%
    22:00 +3°C° 0 mm 2 mps 770 mmHg 80%
    23:00 +2°C° 0 mm 2 mps 770 mmHg 82%

    23 March, Saturday

    Time Temperature Precipitation Wind Pressure Humidity
    00:00 +2°C° 0 mm 2 mps 770 mmHg 80%
    01:00 +2°C° 0 mm 2 mps 771 mmHg 78%
    02:00 +3°C° 0 mm 1 mps 771 mmHg 77%
    03:00 +3°C° 0 mm 1 mps 771 mmHg 76%
    04:00 +3°C° 0 mm 1 mps 771 mmHg 76%
    05:00 +3°C° 0 mm 1 mps 772 mmHg 75%
    06:00 +5°C° 0 mm 1 mps 772 mmHg 73%
    07:00 +6°C° 0 mm 1 mps 772 mmHg 70%
    08:00 +7°C° 0 mm 1 mps 772 mmHg 67%
    09:00 +8°C° 0 mm 1 mps 772 mmHg 64%
    10:00 +8°C° 0 mm 2 mps 773 mmHg 61%
    11:00 +9°C° 0 mm 2 mps 773 mmHg 58%
    12:00 +9°C° 0.1 mm 2 mps 772 mmHg 60%
    13:00 +9°C° 0.1 mm 2 mps 772 mmHg 61%
    14:00 +9°C° 0.1 mm 3 mps 772 mmHg 62%
    15:00 +8°C° 0 mm 2 mps 772 mmHg 66%
    16:00 +7°C° 0 mm 2 mps 772 mmHg 70%
    17:00 +7°C° 0 mm 2 mps 772 mmHg 74%
    18:00 +5°C° 0 mm 2 mps 772 mmHg 76%
    19:00 +4°C° 0 mm 2 mps 772 mmHg 79%
    20:00 +2°C° 0 mm 2 mps 772 mmHg 81%
    21:00 +2°C° 0 mm 2 mps 772 mmHg 82%
    22:00 +2°C° 0 mm 2 mps 772 mmHg 83%
    23:00 +1°C° 0 mm 2 mps 772 mmHg 84%

    24 March, Sunday

    Time Temperature Precipitation Wind Pressure Humidity
    00:00 +1°C° 0 mm 2 mps 772 mmHg 86%
    01:00 +1°C° 0 mm 2 mps 772 mmHg 88%
    02:00 0°C° 0 mm 3 mps 772 mmHg 90%
    03:00 0°C° 0 mm 3 mps 772 mmHg 91%
    04:00 0°C° 0 mm 3 mps 772 mmHg 92%
    05:00 0°C° 0 mm 3 mps 772 mmHg 94%
    06:00 +2°C° 0 mm 3 mps 773 mmHg 87%
    07:00 +4°C° 0 mm 4 mps 773 mmHg 81%
    08:00 +6°C° 0 mm 4 mps 773 mmHg 75%
    09:00 +6°C° 0 mm 4 mps 773 mmHg 73%
    10:00 +7°C° 0 mm 5 mps 773 mmHg 72%
    11:00 +8°C° 0 mm 5 mps 774 mmHg 70%
    12:00 +8°C° 0 mm 5 mps 774 mmHg 69%
    13:00 +9°C° 0 mm 5 mps 773 mmHg 68%
    14:00 +9°C° 0 mm 5 mps 773 mmHg 67%
    15:00 +10°C° 0 mm 4 mps 773 mmHg 72%
    16:00 +9°C° 0 mm 3 mps 773 mmHg 76%
    17:00 +8°C° 0 mm 3 mps 773 mmHg 80%
    18:00 +6°C° 0 mm 2 mps 774 mmHg 84%
    19:00 +5°C° 0 mm 2 mps 774 mmHg 89%
    20:00 +4°C° 0 mm 2 mps 774 mmHg 93%
    21:00 +3°C° 0 mm 2 mps 774 mmHg 93%
    22:00 +3°C° 0 mm 2 mps 774 mmHg 94%
    23:00 +3°C° 0 mm 2 mps 775 mmHg 94%

    25 March, Monday

    Time Temperature Precipitation Wind Pressure Humidity
    00:00 +2°C° 0 mm 2 mps 775 mmHg 94%
    01:00 +2°C° 0 mm 2 mps 775 mmHg 95%
    02:00 +2°C° 0 mm 2 mps 775 mmHg 95%
    03:00 +3°C° 0 mm 1 mps 775 mmHg 95%
    04:00 +3°C° 0 mm 1 mps 775 mmHg 95%
    05:00 +3°C° 0 mm 1 mps 775 mmHg 95%
    06:00 +4°C° 0 mm 1 mps 775 mmHg 91%
    07:00 +6°C° 0 mm 1 mps 775 mmHg 86%
    08:00 +8°C° 0 mm 1 mps 775 mmHg 82%
    09:00 +9°C° 0 mm 1 mps 775 mmHg 77%
    10:00 +10°C° 0 mm 1 mps 775 mmHg 72%
    11:00 +12°C° 0 mm 1 mps 775 mmHg 67%
    12:00 +11°C° 0 mm 1 mps 775 mmHg 68%
    13:00 +10°C° 0 mm 2 mps 775 mmHg 69%
    14:00 +10°C° 0 mm 2 mps 775 mmHg 71%
    15:00 +10°C° 0 mm 2 mps 774 mmHg 74%
    16:00 +10°C° 0 mm 1 mps 774 mmHg 77%
    17:00 +10°C° 0 mm 1 mps 774 mmHg 80%
    18:00 +8°C° 0 mm 1 mps 775 mmHg 84%
    19:00 +7°C° 0 mm 1 mps 775 mmHg 87%
    20:00 +5°C° 0 mm 1 mps 775 mmHg 91%
    21:00 +5°C° 0 mm 1 mps 775 mmHg 91%
    22:00 +5°C° 0 mm 1 mps 775 mmHg 91%
    23:00 +4°C° 0 mm 1 mps 775 mmHg 92%
    Show more